Theta_e
313 315 314 313 314 316 317 317 314 313 314 315 314 314 314 313 314 314 314 315 314 313 314 315 315 315 315 316 317 312 317 326 327 329 332 335 335 334 335 336 338 338 337 336 335 333 331 329 329 328 329 330 332 333 332 331 332 332 332 332 332 331 329 328 329 330 329 327 327 328 328 328 327 327 328 327 327 326 326 326 326 324 323 323 323 324
313 315 314 313 315 317 319 321 319 317 316 315 314 314 314 314 314 315 315 316 316 315 315 315 314 315 315 316 316 314 315 318 322 329 332 334 334 333 335 335 336 336 334 334 333 331 330 329 329 328 328 330 331 333 332 331 331 331 332 332 331 331 330 329 329 329 328 325 324 325 326 326 325 326 327 326 327 326 325 326 325 324 324 324 324 324
313 314 314 313 315 317 319 320 320 319 318 317 315 315 315 315 315 317 318 319 317 316 317 316 314 314 315 316 316 315 316 317 322 330 333 333 333 333 333 333 333 333 332 332 331 330 329 328 328 328 328 328 331 332 332 331 331 330 331 331 331 330 330 328 327 327 327 325 323 323 324 325 326 327 326 325 325 325 323 323 324 325 325 326 326 325
314 314 313 312 314 316 318 318 319 319 319 319 318 316 316 315 315 318 320 320 318 318 318 316 314 314 315 316 315 318 321 324 326 331 333 333 333 333 333 333 333 333 332 332 331 330 330 329 328 328 328 329 331 332 332 332 331 329 329 330 330 330 329 327 326 325 325 325 324 324 325 326 327 327 326 322 318 318 318 317 320 323 324 324 325 325
313 312 312 313 315 316 317 317 319 319 319 321 321 318 316 317 318 319 320 320 320 323 321 316 313 316 322 320 315 322 328 330 330 332 333 333 333 333 334 335 334 334 333 332 331 330 330 329 328 329 329 329 331 332 333 333 332 330 329 329 330 330 329 328 327 325 325 327 327 327 327 328 328 327 324 317 312 313 314 316 318 320 320 320 320 320
312 312 313 315 316 315 315 317 318 320 320 320 323 323 320 320 321 321 320 319 319 322 325 320 312 316 331 327 318 325 331 332 331 332 332 332 333 333 333 334 334 334 334 332 331 330 329 329 329 330 330 330 332 333 333 333 332 331 329 330 330 329 328 327 326 326 327 328 327 326 326 326 325 324 321 314 310 312 314 317 319 319 319 318 318 317
312 312 313 315 317 315 315 315 315 320 319 319 326 329 323 320 320 321 320 316 316 321 326 326 320 322 330 326 323 329 332 332 332 331 332 332 331 332 332 333 333 333 333 332 331 330 329 330 331 331 331 331 332 334 333 333 332 331 330 330 329 328 326 326 327 328 328 327 326 325 324 323 321 319 321 317 312 311 313 316 320 321 321 319 319 319
313 313 314 316 317 316 315 314 316 320 318 321 331 328 320 318 319 321 318 316 319 322 326 330 329 326 323 321 324 331 332 331 333 332 331 332 331 332 332 332 333 333 332 332 331 330 330 331 331 331 331 332 333 333 333 333 332 331 330 328 328 327 324 326 329 328 327 327 327 327 324 323 321 319 321 319 315 314 314 317 321 323 323 322 322 319
317 316 315 316 317 316 315 314 317 319 318 326 334 325 319 319 318 320 317 316 320 320 324 334 331 323 326 327 324 329 334 333 333 332 331 331 330 331 331 332 333 332 331 331 330 330 331 332 332 331 331 332 332 332 332 332 332 331 329 327 327 328 326 327 329 328 328 328 328 327 325 325 323 317 316 315 315 318 319 321 323 323 323 323 323 320
317 315 314 315 316 317 316 315 317 319 320 326 327 320 318 317 317 318 316 316 319 317 322 335 330 320 329 334 324 326 334 334 332 332 331 330 330 331 331 331 332 332 331 331 331 332 332 331 331 331 331 331 332 331 332 332 331 330 329 328 328 329 328 328 328 328 328 328 327 326 327 327 323 316 315 315 316 319 322 323 323 323 323 323 322 320
313 313 315 314 315 317 319 318 317 318 321 321 320 316 314 316 317 319 320 319 318 320 326 333 329 320 323 330 327 327 332 332 332 332 331 330 330 330 331 331 331 331 331 332 332 332 332 331 331 331 331 331 332 332 331 332 331 330 329 329 328 329 329 329 328 328 328 327 327 327 328 327 319 316 318 317 317 319 321 322 322 324 323 322 321 316
314 312 316 316 315 316 317 318 316 316 317 316 318 316 315 322 322 320 323 318 315 325 334 332 325 320 322 329 334 331 328 330 332 332 331 330 329 330 331 331 331 330 332 333 332 332 332 332 331 331 331 331 332 332 332 332 331 330 330 330 330 330 329 329 328 329 328 328 328 328 329 323 315 315 318 317 318 319 321 322 322 321 320 319 317 310
318 316 316 316 317 316 316 319 317 316 316 314 317 317 315 321 323 324 326 322 321 327 331 328 322 320 324 329 332 332 329 330 331 330 330 329 328 329 330 330 331 331 332 331 331 332 332 332 332 332 331 331 331 331 331 331 330 329 330 330 331 329 328 328 329 329 329 329 328 328 325 319 315 316 317 318 320 318 318 320 318 317 316 314 311 308
318 319 316 314 317 316 316 318 316 318 319 314 316 318 317 320 321 324 326 323 323 323 323 325 320 319 328 331 331 332 330 329 329 328 328 328 328 329 330 331 331 331 331 329 331 332 332 333 333 332 332 331 330 330 330 329 328 328 329 330 331 329 328 328 328 329 329 328 327 326 323 320 321 320 316 316 317 313 313 316 317 317 316 313 311 309
317 318 321 318 316 316 316 317 317 322 323 317 318 318 320 328 328 323 325 325 323 323 326 325 317 320 334 337 331 329 328 328 328 328 328 328 328 329 330 331 331 331 330 329 332 333 333 333 332 331 331 331 330 330 329 328 328 328 329 330 330 329 328 328 328 328 326 324 326 327 326 325 325 323 318 314 312 311 314 318 319 318 317 314 312 308
313 317 325 318 314 316 316 316 316 317 319 320 320 316 316 327 332 327 327 330 327 324 324 324 322 325 332 334 329 328 329 329 328 327 328 328 329 331 331 331 331 331 330 330 332 334 333 332 331 331 330 330 330 330 330 330 329 327 328 329 328 326 326 326 327 326 323 323 327 329 328 328 328 324 317 311 310 314 317 319 319 317 315 313 309 307
313 319 325 317 314 317 314 316 316 313 322 325 318 317 318 320 328 328 323 325 327 323 321 327 329 328 329 331 329 330 332 333 332 330 329 329 331 332 331 331 331 331 330 331 332 332 332 332 331 331 330 329 330 331 331 329 327 326 327 328 327 324 323 325 326 325 323 325 329 329 328 329 327 321 313 309 311 316 319 319 319 316 312 310 307 306
316 318 323 317 314 318 313 314 316 313 322 324 316 319 321 316 322 329 326 327 327 324 327 332 330 329 331 332 330 330 333 333 333 332 329 330 331 331 330 331 332 332 332 332 332 331 332 332 331 331 330 330 330 331 330 328 325 325 325 326 327 325 323 324 325 324 324 327 329 329 328 327 324 318 312 309 311 315 320 321 320 316 311 309 308 307
318 316 325 322 315 318 316 312 316 317 316 317 318 319 320 321 326 327 325 327 325 323 325 326 325 327 329 328 328 331 333 332 331 331 330 330 330 329 330 332 333 333 333 333 333 332 332 333 333 332 332 331 331 331 330 328 326 326 324 324 326 326 324 324 325 325 325 328 328 328 326 325 323 320 314 311 312 318 322 321 319 316 313 311 308 306
319 315 324 329 317 318 325 320 317 322 322 318 320 320 322 332 334 326 324 328 328 326 324 323 325 327 325 324 327 328 329 329 329 330 331 329 328 329 329 330 331 332 332 332 332 333 332 333 334 332 332 332 332 332 331 330 329 328 326 325 326 326 324 324 326 326 326 327 327 327 325 324 324 321 316 314 317 321 322 320 319 317 315 312 309 306
323 318 321 330 323 320 331 327 316 320 324 322 325 325 324 326 325 323 324 326 330 333 329 326 326 326 324 324 325 326 327 327 326 327 327 326 326 327 327 327 327 327 328 329 330 332 332 333 334 333 333 333 332 332 331 330 331 331 329 327 326 325 324 324 326 326 325 326 327 326 325 325 324 321 318 319 322 323 321 319 319 319 316 313 310 307
325 325 325 330 325 320 326 324 315 318 321 322 326 325 323 324 324 324 324 323 330 335 331 329 329 326 324 325 324 325 326 327 325 324 323 324 324 325 325 325 324 325 326 327 327 329 330 332 333 332 331 332 331 331 331 331 331 331 330 329 327 325 324 325 326 324 324 325 325 325 325 325 323 322 321 322 322 321 320 320 320 319 318 314 311 309
325 328 327 326 322 318 317 317 317 318 318 321 324 321 324 329 330 333 332 326 327 327 326 331 334 328 323 324 324 324 324 325 324 323 322 322 323 324 324 324 325 326 327 326 326 326 327 328 329 327 327 329 330 330 330 330 330 330 330 329 328 327 324 324 325 324 324 325 324 324 325 324 323 323 323 322 320 319 320 321 319 318 317 313 310 312
326 325 325 327 329 327 320 316 317 317 319 324 325 324 325 323 326 334 336 333 329 325 326 332 332 326 323 324 324 323 323 324 323 323 322 322 322 323 324 324 325 326 327 327 327 326 326 326 327 327 327 328 328 328 328 329 330 330 330 329 328 327 325 324 325 325 326 326 325 325 326 325 323 323 323 322 321 320 320 320 319 318 317 313 309 311
324 324 326 329 331 330 323 318 318 319 321 324 324 325 324 324 330 330 327 333 331 323 326 330 328 325 324 323 323 323 324 324 323 323 322 322 323 323 323 323 324 326 326 327 327 327 327 327 327 327 327 327 326 326 327 327 327 328 329 328 327 328 328 326 326 327 326 326 326 326 326 325 323 322 321 322 322 322 321 320 321 320 317 313 309 308
326 328 330 329 328 326 323 322 324 323 323 324 324 326 325 328 333 325 323 334 331 322 328 331 327 325 324 323 324 323 323 324 322 321 321 322 322 322 322 322 323 324 325 325 327 327 327 327 327 327 327 327 326 325 326 326 326 326 326 326 327 327 328 327 327 327 326 325 325 325 323 323 322 319 319 321 321 321 320 318 319 319 318 316 311 307
327 327 327 326 326 327 325 325 326 323 324 326 324 326 328 329 331 330 331 335 329 327 330 327 324 326 325 323 324 322 322 323 322 321 321 321 321 322 321 321 321 322 322 323 324 325 326 326 326 326 326 326 326 325 324 325 325 324 323 323 325 326 326 326 326 326 326 325 324 323 322 322 322 319 320 321 317 316 315 314 314 314 315 317 313 307
330 326 321 321 321 320 320 321 322 320 321 324 323 325 329 331 335 338 334 326 323 329 330 324 323 326 325 323 323 322 322 321 320 319 319 319 319 319 319 319 319 320 321 322 323 324 325 325 325 326 325 326 326 325 324 324 324 323 321 321 323 324 324 324 324 325 326 325 324 323 323 323 322 321 321 320 316 314 314 315 313 311 312 315 313 308
330 323 319 322 322 319 318 319 319 319 319 320 322 324 325 327 332 335 331 324 323 329 328 323 323 323 322 320 318 316 316 315 314 315 314 314 315 314 315 315 315 315 317 318 319 321 323 324 324 325 324 324 325 325 325 325 325 324 323 322 322 322 323 323 323 323 324 325 325 325 323 321 321 321 319 318 317 317 317 315 311 310 312 314 311 309
325 322 319 323 323 320 318 318 318 318 318 318 319 320 320 321 323 325 324 322 321 324 322 320 319 318 316 314 311 310 310 310 310 310 310 310 310 309 311 310 310 311 311 312 313 316 318 319 321 322 323 323 324 324 325 324 324 324 324 324 323 323 323 323 323 322 323 324 324 325 323 321 320 320 317 317 317 318 318 316 313 312 312 311 311 311
321 321 319 322 324 320 318 318 318 317 317 317 317 317 318 319 320 320 320 319 319 319 317 316 316 315 312 310 309 308 308 308 308 307 307 307 307 307 307 307 307 308 308 309 310 312 313 314 316 317 319 320 322 323 324 323 323 324 324 324 324 323 323 323 323 324 324 323 323 323 322 320 319 319 318 317 317 317 319 319 318 317 314 312 313 315
322 321 319 321 324 320 316 317 318 316 317 319 318 316 317 319 319 318 319 319 319 317 316 317 316 314 311 310 308 308 307 307 306 306 306 305 305 305 305 305 306 306 307 308 309 310 311 311 312 313 313 316 319 322 323 323 323 323 324 323 323 323 323 323 323 323 324 324 323 322 321 320 319 319 319 319 318 318 320 320 320 319 318 317 317 318
323 322 321 321 321 318 316 317 318 318 319 320 316 314 315 317 317 318 318 318 318 317 317 318 316 313 311 309 308 308 307 306 305 305 305 305 304 305 305 305 305 306 307 307 308 309 310 309 310 310 310 312 316 319 321 322 322 322 323 322 322 322 323 323 323 324 324 325 324 324 323 322 321 321 322 322 321 320 320 321 321 321 321 320 320 320
319 320 322 321 320 319 317 317 319 319 319 317 313 312 314 315 315 316 315 314 315 314 313 313 313 312 311 309 308 307 306 305 304 305 305 306 305 305 306 307 307 307 307 307 308 308 308 308 309 309 309 310 312 316 319 322 322 322 322 321 321 321 321 322 322 323 324 323 323 323 324 324 323 323 323 323 322 321 320 320 321 322 321 322 321 321
318 319 320 319 320 320 317 318 320 319 317 315 313 310 311 312 313 312 311 310 311 311 310 310 310 310 309 308 307 307 305 305 306 306 307 307 308 308 308 308 308 309 308 308 308 308 309 309 309 309 309 309 309 312 315 317 318 319 319 319 320 320 319 319 320 322 322 322 322 323 322 323 323 323 322 321 321 321 321 321 322 322 321 322 322 321
320 320 319 319 319 319 318 319 319 316 314 315 314 310 309 312 313 312 311 310 309 309 310 309 308 307 307 307 306 305 304 304 305 306 306 307 309 310 309 308 309 309 309 309 309 308 309 309 309 309 309 308 308 309 310 311 312 312 313 314 315 315 314 315 317 318 319 320 320 321 321 321 322 321 321 321 321 321 322 322 322 321 321 321 321 321
320 321 321 320 318 317 317 317 316 315 313 314 314 310 308 310 312 312 313 311 309 308 309 308 306 305 305 305 305 304 304 303 303 304 304 305 307 308 308 308 308 309 309 309 310 309 309 309 309 309 309 308 309 309 309 309 309 309 310 310 310 310 310 311 312 313 314 316 317 318 319 320 321 321 321 320 320 320 320 320 320 320 321 320 320 321
316 319 322 321 317 316 316 315 315 316 315 313 313 310 307 308 308 309 312 313 309 307 308 307 305 304 304 304 304 304 303 303 303 302 303 303 304 304 305 306 306 306 306 307 308 309 309 309 309 309 309 309 308 309 310 310 310 310 310 309 309 309 309 309 309 310 311 312 313 314 316 317 317 318 320 319 319 318 317 317 318 318 319 319 319 319
312 315 320 322 318 317 317 315 315 315 313 311 311 310 307 307 308 310 314 314 310 307 306 305 304 304 303 304 304 304 304 305 304 303 302 303 303 303 303 303 303 303 303 304 306 306 307 308 308 308 309 309 309 309 310 310 310 311 311 311 310 310 310 309 309 309 309 309 310 311 312 312 313 314 315 315 316 317 317 317 316 316 316 316 316 316
314 315 318 319 316 314 314 313 313 312 311 309 309 309 307 307 308 312 315 314 310 307 306 305 305 304 304 304 304 304 304 304 304 303 303 303 303 302 301 301 301 302 302 302 303 303 304 304 305 306 307 307 307 307 309 310 311 311 311 311 311 310 310 309 309 309 309 309 309 310 310 311 311 311 312 312 313 315 316 316 315 314 314 314 314 314
315 315 315 315 313 311 311 311 310 311 310 308 306 307 306 307 310 313 314 312 310 308 307 306 306 306 305 304 304 303 303 304 304 303 303 302 301 300 300 299 300 301 301 301 301 301 301 301 301 302 302 302 302 303 305 307 308 309 310 310 310 310 309 309 309 309 309 309 309 309 310 310 310 310 311 311 312 312 313 313 314 314 314 315 314 314
314 313 313 314 313 311 311 310 310 310 308 305 305 305 306 310 313 312 309 308 308 307 307 306 305 304 304 303 302 302 302 303 303 302 302 301 301 301 301 300 300 300 300 300 300 300 300 300 300 300 300 300 299 299 299 300 302 304 304 305 307 308 308 308 309 309 309 310 310 310 309 309 310 310 310 310 311 311 311 312 312 312 313 313 312 313
311 312 313 311 311 311 311 309 310 311 307 304 306 308 308 309 310 308 305 305 306 305 305 304 303 303 303 302 301 301 302 302 302 301 301 301 301 301 301 301 300 298 298 298 298 298 298 298 299 299 299 298 298 297 296 297 299 299 299 300 301 301 302 304 306 306 307 308 309 309 309 309 309 309 310 310 310 310 311 311 311 311 311 311 311 311
309 312 313 310 308 310 311 308 307 307 304 303 306 307 306 306 306 305 304 304 304 304 304 303 302 302 302 302 301 302 302 301 302 302 301 301 300 300 299 298 297 296 296 296 296 296 297 297 297 297 297 296 296 296 296 296 297 297 297 297 298 298 298 299 300 301 302 302 304 305 306 306 307 307 307 307 308 309 309 309 309 310 310 311 311 310
308 309 309 307 305 307 308 306 304 304 302 302 304 304 303 304 304 304 304 303 303 303 303 302 302 302 302 302 302 302 302 301 301 301 301 300 299 298 297 296 296 296 296 296 296 296 296 297 297 297 297 297 297 297 297 297 297 297 297 297 297 297 297 297 297 298 298 299 299 300 301 302 304 304 303 303 304 305 305 305 306 307 307 308 309 310
306 306 306 306 305 304 305 304 303 303 302 302 303 303 303 303 303 303 303 302 302 303 302 302 303 302 303 303 302 301 301 300 300 299 299 298 298 298 297 297 297 297 296 296 296 296 296 297 297 297 297 298 298 298 297 297 297 297 297 297 297 297 297 297 297 297 297 297 297 297 298 298 298 298 299 299 299 300 301 302 303 304 304 305 307 307
306 305 305 306 306 305 305 304 302 303 302 302 303 303 303 304 304 304 304 303 303 303 303 303 303 302 303 303 301 300 299 299 299 299 299 299 299 298 298 297 297 297 297 296 296 297 297 298 298 298 298 298 298 298 298 297 297 297 297 297 297 297 297 297 297 297 297 297 297 296 296 297 296 297 297 297 297 297 297 298 299 301 302 303 304 306
306 306 306 307 306 305 305 303 302 303 302 302 303 303 302 303 303 303 304 303 303 303 302 302 302 301 301 301 300 299 299 299 299 300 299 299 298 298 298 298 297 297 297 297 298 298 298 298 298 298 298 298 298 298 298 298 297 297 297 297 297 297 297 297 297 296 296 296 296 296 296 296 296 296 296 297 297 297 297 297 298 299 300 301 302 303
306 306 306 305 305 304 304 303 302 303 302 302 302 302 302 302 302 302 302 302 302 301 300 300 300 300 300 300 300 299 298 298 299 299 298 298 298 297 297 297 297 297 297 297 298 298 298 298 298 298 297 298 297 297 297 297 297 297 297 297 297 297 297 297 297 296 296 296 296 296 296 296 296 296 296 296 297 297 297 298 298 299 299 300 300 301
306 306 304 304 305 305 304 303 303 303 303 302 302 302 302 302 301 301 301 301 301 301 300 300 299 299 300 300 300 299 298 297 298 298 297 297 297 297 297 296 296 297 297 297 297 297 297 297 297 297 297 297 297 297 297 297 297 297 297 297 297 297 296 296 296 296 296 296 296 296 296 295 295 295 295 296 296 296 297 297 298 298 299 299 300 300
305 304 304 305 306 305 304 303 302 303 302 302 302 302 301 301 300 300 300 300 300 300 300 300 299 299 299 299 299 299 298 297 297 297 297 297 296 296 296 296 296 297 297 297 297 297 297 297 297 297 297 297 297 297 297 297 297 296 296 296 296 295 295 295 295 295 295 295 295 295 295 295 295 295 295 295 295 295 295 296 297 297 298 299 299 300
Wind_Speed
7 4 4 7 6 6 7 7 8 5 5 6 5 5 5 5 6 7 8 7 4 4 7 10 10 13 15 12 13 12 16 21 18 20 23 24 27 30 33 32 29 28 27 26 25 23 21 19 19 20 20 23 26 25 24 27 28 29 30 32 31 29 28 28 26 25 26 25 23 23 22 21 20 18 17 16 14 14 13 13 14 14 12 10 9 8
6 6 7 8 7 9 9 8 7 6 7 7 6 7 7 5 8 10 7 7 4 4 8 10 11 15 15 12 14 11 9 11 18 22 23 26 26 29 34 34 32 31 30 31 28 25 24 23 22 21 22 25 28 27 26 27 28 29 31 32 32 30 29 28 26 25 25 24 22 22 23 21 19 17 17 17 16 15 14 13 12 11 9 8 8 9
2 6 10 11 9 9 8 7 7 7 7 7 5 4 6 5 6 9 6 6 3 3 7 8 10 14 15 14 12 7 2 7 25 34 32 34 31 30 34 34 34 35 34 33 30 28 27 26 24 22 22 24 27 27 26 27 27 29 32 32 32 31 29 27 24 23 22 21 20 20 20 20 19 17 17 16 15 15 14 12 10 9 9 9 10 9
3 8 11 11 8 7 8 8 6 5 5 5 5 3 6 5 3 6 5 4 3 4 7 7 9 9 9 10 6 5 9 9 23 34 33 37 37 34 36 36 36 37 36 34 32 30 28 26 25 23 24 26 27 27 27 28 28 30 32 31 31 30 28 26 24 22 20 19 18 17 18 19 19 18 16 14 14 14 13 12 11 10 9 9 9 9
9 13 7 6 7 8 8 8 5 4 4 5 7 7 7 5 5 7 6 5 7 7 3 4 5 4 5 6 2 8 15 16 19 26 25 28 33 34 37 37 37 36 36 36 34 32 28 26 26 26 26 27 27 27 28 29 29 30 30 30 30 28 26 25 24 22 22 21 21 20 20 20 19 19 16 14 14 12 12 12 12 11 10 9 9 9
13 16 5 5 8 9 8 8 7 6 5 6 7 9 9 6 6 7 6 5 6 7 2 5 5 3 5 0 3 5 10 11 14 20 21 25 29 33 37 36 35 34 34 34 33 31 28 27 29 29 28 28 28 28 29 29 29 29 29 28 28 27 26 25 24 25 25 25 25 24 24 22 20 19 16 14 13 12 12 12 11 10 9 8 7 6
9 11 7 8 9 9 9 9 8 8 5 6 6 8 8 6 4 7 6 4 1 4 4 3 5 3 4 5 6 7 10 10 11 15 18 24 27 29 32 32 32 34 34 33 31 30 30 31 33 32 31 30 29 30 30 29 29 29 28 27 28 27 26 27 26 27 27 26 26 26 24 21 19 17 16 12 11 12 13 13 11 9 9 7 5 5
7 9 7 7 8 7 7 7 8 9 7 6 6 7 6 3 5 7 5 3 3 5 5 3 4 3 3 3 6 10 12 10 11 13 15 21 26 27 29 32 34 35 34 33 32 31 31 34 34 33 32 30 29 30 30 30 30 30 29 28 28 27 27 28 28 28 27 26 26 25 22 19 17 16 16 14 14 15 14 13 12 11 11 9 6 6
5 8 9 8 7 5 6 10 10 9 7 7 6 7 5 4 7 6 5 5 3 2 6 6 3 3 1 2 3 9 11 8 10 13 13 17 24 27 30 34 35 34 33 30 29 30 32 34 33 30 30 29 28 28 29 31 32 31 30 29 28 28 27 29 29 27 26 24 23 22 20 19 17 16 18 18 18 18 16 14 14 14 13 11 8 7
5 10 13 8 6 6 9 13 10 10 7 7 5 4 2 3 4 4 4 4 2 1 5 6 2 3 2 3 3 6 6 8 8 8 9 14 21 26 29 33 33 33 32 28 25 26 29 31 28 27 28 29 28 28 29 31 32 31 30 29 29 28 29 30 29 27 25 23 22 20 19 19 18 18 20 20 21 20 19 17 16 14 13 12 9 7
9 14 13 7 7 8 10 9 9 12 9 3 3 2 2 2 1 1 2 1 2 2 7 6 3 5 1 4 2 2 4 10 10 7 7 11 17 23 27 29 30 33 33 28 24 23 26 27 25 28 29 28 29 29 30 31 32 31 29 29 29 29 31 31 29 26 24 22 21 21 20 18 18 19 21 22 23 21 20 19 17 15 14 12 9 9
8 10 8 6 11 9 7 5 4 6 5 4 3 1 1 4 3 2 3 3 3 3 7 6 5 7 2 4 3 3 5 13 15 13 13 14 17 22 25 26 29 32 31 26 23 22 25 27 26 28 28 28 30 30 30 32 32 31 30 29 29 31 32 31 28 26 25 23 22 22 21 20 20 20 20 21 21 20 20 19 18 16 15 13 10 11
6 6 5 6 10 7 6 3 3 3 2 3 2 3 2 3 2 2 3 0 2 4 6 5 4 4 3 4 4 5 6 16 15 15 17 16 18 21 24 27 28 28 28 26 24 23 26 27 27 29 28 29 31 31 31 32 33 31 30 30 30 32 32 30 28 27 25 24 23 23 23 21 20 19 18 18 18 17 18 18 17 16 15 14 12 12
4 6 5 3 4 4 7 4 2 3 0 3 3 4 4 2 1 1 3 1 1 4 6 4 3 2 3 3 5 7 6 16 14 16 20 18 18 20 22 27 28 28 29 29 28 27 27 27 27 29 30 30 31 32 33 33 33 32 30 30 31 32 32 30 28 26 25 25 24 24 23 21 20 18 16 16 16 17 17 16 15 14 13 13 12 12
3 5 4 3 4 3 6 6 6 4 3 3 3 5 5 4 4 2 3 2 3 3 4 4 1 2 2 2 6 7 4 11 9 14 20 18 19 21 22 25 29 30 31 31 31 28 26 26 26 28 30 30 31 33 34 34 33 30 29 30 31 32 32 30 27 25 25 26 26 24 22 20 18 15 15 16 16 16 16 15 14 13 13 12 11 12
4 6 7 6 6 6 6 6 7 6 1 4 2 4 3 5 5 2 3 4 3 0 3 2 1 0 2 2 7 6 6 8 7 10 15 17 21 22 23 25 28 30 31 30 29 26 26 26 27 28 28 30 32 32 32 33 32 30 28 28 30 31 30 29 26 26 27 28 26 23 22 21 17 15 15 17 17 17 15 15 14 13 14 13 12 12
3 5 7 4 3 6 9 7 6 7 3 2 2 3 4 4 7 5 2 1 5 2 3 1 2 1 1 2 7 6 5 6 6 8 12 16 20 18 19 24 27 28 28 26 24 25 26 27 27 28 28 29 31 32 31 30 30 29 28 28 29 29 28 27 26 27 29 27 24 23 23 20 17 16 16 17 18 17 16 15 13 12 14 14 13 13
3 5 7 3 4 8 10 7 3 7 7 3 1 4 2 3 4 4 2 3 5 1 4 2 3 2 1 1 4 6 3 4 5 6 8 12 15 13 15 21 24 24 24 22 21 23 26 26 26 27 27 27 29 30 29 28 28 28 28 28 28 28 27 27 26 27 28 26 23 24 23 20 17 16 16 17 18 18 17 15 13 12 13 14 13 13
2 3 7 5 5 6 3 2 3 3 2 4 3 3 2 2 0 1 2 2 2 2 2 3 1 2 2 0 4 5 3 0 3 5 6 7 9 11 15 19 21 22 21 20 20 23 25 26 25 25 25 25 26 26 26 26 26 27 28 28 28 27 27 25 25 25 24 24 24 24 21 19 17 16 16 17 18 18 16 14 13 12 12 12 13 14
1 2 5 6 4 2 4 3 1 5 5 3 2 2 2 3 3 2 2 4 4 3 2 1 1 1 0 3 5 6 6 4 3 3 4 5 6 8 11 13 14 16 17 17 18 21 24 24 24 24 23 23 23 23 24 24 25 26 28 29 27 26 25 24 23 22 22 24 25 24 21 19 17 16 17 18 19 17 15 14 13 11 11 11 13 15
3 2 4 6 5 3 2 0 2 1 1 3 4 3 2 1 3 2 1 2 4 5 3 2 2 1 1 3 5 4 1 5 6 4 2 6 9 8 5 5 5 4 4 8 13 18 21 22 22 22 23 23 22 22 23 23 23 24 26 27 26 26 26 23 22 22 23 24 24 23 21 20 18 18 18 19 18 15 14 14 12 10 9 10 12 15
1 1 3 3 4 3 1 3 6 7 4 4 3 2 1 2 4 4 1 2 2 4 4 4 3 1 3 3 4 2 6 7 7 7 6 10 15 14 11 9 5 3 4 4 5 9 15 18 19 19 19 18 16 18 21 22 22 23 24 25 25 26 27 24 23 24 25 25 24 23 22 21 20 19 19 19 17 13 13 14 11 9 8 9 12 15
2 3 2 1 0 1 2 1 9 12 9 6 3 1 2 2 4 5 4 3 1 2 2 3 3 0 3 3 3 5 7 8 12 11 7 11 17 17 15 13 7 5 4 4 3 2 5 8 9 10 10 8 7 10 14 17 20 22 23 23 23 24 26 25 24 25 25 25 25 25 24 22 21 21 20 18 15 13 14 14 11 10 10 9 12 15
1 3 3 2 3 1 3 3 5 8 7 6 3 3 3 1 3 5 5 4 3 2 1 3 2 1 2 3 3 9 11 12 15 14 8 9 17 22 21 18 14 10 8 9 8 6 7 8 9 11 11 8 8 7 8 13 18 21 23 22 21 21 23 23 22 23 25 25 26 26 24 22 22 24 22 18 15 15 15 15 13 12 11 10 13 16
1 1 2 2 3 3 3 3 4 5 4 4 1 4 3 2 3 2 1 3 3 2 3 5 2 2 0 2 4 8 11 12 13 11 8 11 17 23 25 21 18 15 12 13 15 15 13 11 11 12 12 11 11 10 8 11 14 18 22 23 22 22 22 21 22 25 25 24 26 26 21 20 22 22 19 16 16 17 17 16 14 13 12 11 14 16
2 1 2 5 3 2 2 4 3 0 2 2 1 4 5 5 5 2 2 4 2 2 3 4 3 3 2 4 5 6 8 9 8 7 9 15 19 21 25 25 22 18 16 15 18 18 15 14 13 14 14 12 11 10 9 9 11 13 15 16 18 20 20 20 21 24 26 25 26 26 21 20 21 20 19 19 19 18 17 16 14 14 13 13 15 17
3 1 3 5 5 4 3 5 5 1 3 3 2 5 6 4 5 4 3 2 2 2 3 1 5 8 6 5 7 7 7 8 6 6 10 16 20 19 23 27 26 24 21 18 18 18 17 16 16 15 15 13 10 9 9 9 10 11 10 9 10 13 15 17 19 22 25 25 25 27 25 23 21 22 22 22 21 20 18 16 15 16 17 16 15 18
4 3 3 3 2 2 4 4 2 2 3 4 4 4 5 4 6 7 3 0 2 4 2 2 6 9 7 6 8 7 7 7 7 8 11 16 19 20 22 27 29 28 27 24 23 21 19 18 15 15 15 14 12 9 9 10 10 10 9 9 11 11 12 14 17 17 19 20 20 23 25 23 21 22 22 20 19 19 17 17 19 18 18 18 18 19
5 2 3 4 4 7 9 8 4 4 5 4 5 5 5 6 7 6 1 2 1 4 4 6 7 7 6 6 6 6 6 7 8 12 15 19 22 23 25 27 28 28 28 27 26 24 21 18 15 13 12 11 12 12 11 11 11 10 10 10 10 11 12 13 14 13 13 15 18 20 22 23 22 22 21 19 18 17 15 17 19 19 18 19 20 21
4 2 2 4 5 8 11 11 6 4 7 7 7 6 6 8 9 8 5 6 9 8 8 10 11 8 4 4 6 7 8 12 16 19 21 22 23 26 28 28 27 28 28 29 28 27 25 21 17 14 12 10 11 12 12 11 10 9 10 9 9 9 11 11 12 11 10 13 17 21 22 24 24 23 21 20 19 19 19 18 18 17 17 19 20 20
4 1 1 4 4 4 8 9 6 5 10 9 8 9 7 7 9 8 7 9 10 9 9 12 11 7 3 4 7 8 11 17 19 20 21 21 23 28 29 28 27 28 28 29 29 29 28 26 23 19 16 14 11 11 12 12 12 10 10 9 8 9 10 10 10 11 11 12 16 19 21 23 24 23 23 21 20 20 20 19 18 17 18 19 20 19
3 1 1 4 4 1 4 6 5 1 9 10 10 11 10 5 6 5 3 4 6 8 10 9 7 4 2 3 8 11 16 19 17 17 20 22 26 30 30 29 29 29 29 29 30 30 30 30 29 26 24 20 15 13 12 12 14 13 12 10 9 10 10 10 11 12 12 12 14 17 19 21 22 22 22 22 20 21 21 19 19 19 19 19 20 20
2 4 2 3 4 1 3 4 5 3 5 7 7 9 8 3 5 6 5 5 4 6 7 5 4 5 6 6 8 10 14 16 15 17 20 21 25 30 30 29 29 29 30 31 31 32 32 32 32 31 29 26 21 18 15 12 13 14 14 12 10 10 11 12 12 12 12 11 11 13 15 17 19 20 21 20 20 22 22 22 21 20 20 20 21 20
2 5 4 2 3 1 2 3 3 2 4 2 5 6 5 2 7 9 6 6 6 5 5 5 6 6 5 7 9 8 11 15 18 21 23 21 23 27 28 28 27 27 29 30 31 32 33 32 33 33 33 32 28 22 17 14 13 14 15 16 14 13 13 13 12 11 11 10 9 8 9 11 14 17 18 18 19 21 22 23 23 21 21 21 21 21
4 4 3 2 3 3 1 3 3 1 2 1 4 6 6 5 9 13 10 8 8 10 10 9 9 8 8 10 13 14 16 19 20 21 21 20 20 22 24 24 23 22 24 26 26 27 28 28 29 31 32 33 32 28 23 20 19 19 20 20 21 20 18 16 13 13 13 12 10 9 9 10 11 13 14 15 16 18 21 24 25 23 22 22 21 21
5 3 2 2 2 2 3 2 2 2 1 2 5 6 5 5 6 10 10 8 6 9 11 9 8 10 12 14 17 19 21 23 22 19 16 16 16 17 19 20 19 19 19 20 20 19 19 20 21 22 24 26 28 30 30 28 27 28 28 27 26 25 23 20 18 16 14 13 11 11 10 10 11 11 12 12 12 14 16 19 19 20 22 22 22 21
5 4 2 2 2 3 3 2 3 4 1 2 3 3 2 2 3 2 5 4 2 5 11 11 8 9 13 16 20 22 23 23 19 15 14 16 15 14 15 15 14 14 15 16 15 13 14 14 14 14 15 16 18 21 25 26 27 28 30 28 27 27 26 25 23 20 18 16 15 13 12 11 10 10 10 9 8 7 7 8 9 11 14 17 18 19
5 3 3 3 1 2 4 3 3 3 2 1 1 4 3 3 4 2 4 4 2 4 12 14 11 10 13 17 19 17 16 16 9 6 13 20 19 18 18 16 13 13 13 13 12 9 7 8 8 8 8 9 11 13 15 19 21 23 25 24 23 23 25 25 24 22 20 19 18 16 15 14 12 10 9 8 6 5 3 2 3 5 7 9 11 12
9 5 4 4 2 2 4 3 2 2 1 1 4 6 7 6 5 0 4 3 3 8 14 15 13 12 14 17 16 9 8 8 2 5 14 20 20 21 21 19 17 16 15 14 11 9 7 5 3 3 3 2 5 8 7 9 13 15 17 17 16 16 18 20 19 18 18 18 17 16 15 15 14 12 11 9 6 5 4 3 2 3 4 5 6 8
8 5 4 4 3 2 3 3 2 1 1 2 4 8 11 11 5 2 2 2 6 13 17 18 17 15 14 13 10 4 5 7 8 10 15 17 17 18 20 19 19 17 17 16 14 12 11 10 8 6 3 3 4 5 3 1 2 4 7 9 8 8 10 12 11 10 11 12 13 13 13 13 13 12 11 10 8 6 6 6 5 4 4 4 5 6
4 4 3 3 3 4 4 3 1 1 3 3 7 11 11 6 0 3 3 4 9 16 17 16 17 15 13 14 14 11 10 15 17 17 17 17 17 18 18 18 18 17 17 17 15 12 11 10 11 10 8 8 7 6 3 2 2 1 2 2 1 1 3 4 4 3 3 4 5 6 7 8 9 9 9 9 9 8 8 7 7 6 6 6 6 8
2 2 3 2 1 3 3 2 1 0 2 6 11 11 7 3 2 2 1 5 12 17 17 17 19 20 21 24 25 24 23 24 25 23 22 21 19 17 14 14 15 15 14 13 12 10 8 7 7 7 6 7 7 7 6 4 3 3 1 2 3 4 5 6 6 5 5 5 5 4 3 3 3 4 5 6 7 8 9 9 8 7 7 7 7 8
1 1 2 2 2 2 3 3 2 2 5 12 11 6 5 3 3 6 12 15 19 23 24 23 25 28 30 30 28 29 28 26 26 25 23 20 17 13 11 9 9 10 9 8 8 7 5 5 5 5 5 4 4 5 5 5 4 3 3 3 3 4 5 7 9 10 10 10 11 11 11 10 10 9 10 9 7 6 8 8 7 8 9 7 7 7
2 0 2 1 2 2 2 2 2 2 7 12 7 4 6 9 13 18 21 20 21 24 27 27 25 27 31 31 28 27 25 23 21 19 17 14 12 10 8 6 6 8 8 8 8 6 5 4 4 4 4 5 5 5 5 5 3 2 3 3 4 5 6 7 9 10 11 12 13 13 14 14 14 13 13 12 12 11 12 12 12 13 14 14 13 10
2 4 6 3 2 4 4 3 4 4 10 17 20 19 19 22 24 25 26 24 22 23 26 28 26 25 26 26 24 22 20 17 15 13 11 9 7 6 6 7 7 7 8 9 9 7 5 5 7 7 7 7 7 7 5 4 3 2 2 3 5 7 8 8 9 10 11 12 13 14 15 16 17 17 15 14 15 17 17 17 17 17 16 17 19 18
3 7 9 6 5 7 9 8 8 11 17 23 25 26 26 28 27 28 31 29 26 24 25 26 24 21 19 19 19 18 15 13 12 10 8 7 7 7 7 7 7 8 8 8 8 8 7 8 8 7 6 6 5 5 4 4 4 4 3 4 4 5 6 7 8 8 9 10 12 13 15 16 17 17 17 17 17 19 20 20 21 20 17 16 18 20
1 4 6 4 3 4 5 5 7 12 17 22 25 24 24 24 24 24 26 26 23 21 20 18 17 15 12 12 15 15 12 10 11 10 9 8 9 8 8 7 6 7 9 9 8 7 7 7 6 4 4 4 4 4 5 5 5 5 5 6 6 6 7 7 8 8 9 9 9 10 11 13 14 14 15 16 17 18 20 22 23 24 23 22 21 21
0 4 6 4 2 4 4 5 9 15 17 19 22 22 22 22 20 19 19 18 17 17 16 14 15 14 13 13 14 14 12 10 10 12 12 11 9 7 6 5 4 5 5 5 4 4 3 3 3 3 4 4 4 5 6 7 8 8 8 9 9 9 9 9 9 10 10 11 11 11 11 12 12 12 11 12 12 14 17 19 21 21 21 22 23 23
4 5 4 4 5 5 5 7 11 13 11 12 18 21 21 23 22 20 19 18 17 18 18 17 16 14 14 14 13 12 14 13 12 14 13 11 8 6 4 3 2 1 1 1 2 2 1 1 2 3 5 6 6 7 9 11 12 13 14 14 14 14 13 13 12 12 12 13 13 13 13 13 13 12 12 11 10 11 12 14 16 17 17 17 18 19
7 4 3 5 6 3 3 7 10 8 5 9 16 20 20 20 21 19 18 17 16 16 16 16 15 14 13 13 11 11 13 14 12 11 10 8 6 4 3 2 2 3 1 1 2 2 2 3 5 6 8 10 11 12 14 15 16 17 18 18 19 19 18 17 17 16 16 16 16 16 16 15 15 14 14 13 13 13 13 13 14 14 15 16 16 17
5 6 6 6 5 5 9 13 14 12 10 11 16 19 19 18 18 18 17 17 16 15 15 15 14 12 12 12 10 8 10 11 10 8 7 6 4 2 1 1 3 3 2 2 3 5 7 9 10 11 13 14 16 16 16 17 17 18 18 18 19 19 17 17 17 16 16 17 17 17 17 17 17 16 16 16 15 15 16 16 16 16 15 15 16 18
Wind_Direction
187 202 243 226 222 220 230 227 218 224 224 251 279 266 263 267 272 269 268 273 227 220 249 238 231 237 240 235 244 230 172 167 161 136 136 144 143 140 141 142 144 149 153 152 152 152 150 154 157 160 166 172 179 181 175 173 173 174 175 172 170 169 170 169 169 171 172 173 177 180 180 180 178 174 171 167 165 166 169 174 176 175 172 172 171 167
179 203 239 225 215 216 225 227 220 232 239 245 258 268 276 265 269 271 264 267 220 198 255 235 223 240 236 232 240 219 166 161 157 144 148 151 141 140 143 144 147 149 151 151 151 153 155 157 157 163 172 178 183 184 179 176 175 176 177 176 175 173 173 173 172 175 176 178 180 181 180 177 171 165 164 163 162 164 165 168 168 160 157 161 164 164
213 232 242 227 214 213 230 231 213 224 236 241 245 266 277 266 282 282 261 252 206 178 264 239 210 235 234 227 241 231 196 174 165 159 157 151 141 142 145 145 147 147 151 154 156 159 161 161 163 170 178 184 191 188 180 177 176 176 176 177 178 175 174 173 174 177 178 179 181 183 179 170 161 158 161 161 159 161 160 159 156 151 155 158 159 159
236 248 236 223 209 202 236 244 220 231 242 237 238 249 261 255 277 285 279 287 286 243 245 223 205 232 240 234 273 31 67 102 151 155 153 149 145 147 150 149 150 151 156 159 160 163 164 167 171 177 182 187 192 187 178 178 179 175 174 176 178 175 174 174 176 177 175 173 174 176 172 163 159 159 162 161 156 158 162 160 155 154 152 149 152 154
236 249 223 181 199 202 228 247 230 228 250 243 228 225 237 230 216 247 283 319 322 303 250 154 174 246 265 235 306 52 77 89 122 131 130 139 142 147 152 154 157 158 160 161 163 166 169 174 178 181 183 186 191 186 178 180 181 177 174 176 176 175 174 175 175 173 169 167 166 166 165 164 166 167 169 169 158 153 156 154 152 150 145 146 153 152
243 253 219 163 208 207 215 243 227 194 230 261 231 217 210 198 223 257 300 347 356 328 313 108 126 243 289 199 99 74 81 87 111 118 123 135 142 152 158 161 163 161 162 164 166 170 175 179 179 182 184 186 189 184 178 182 184 182 179 177 175 173 174 174 172 170 168 168 169 170 171 173 177 176 175 171 160 153 154 153 152 149 144 146 147 142
246 250 209 189 212 211 213 240 229 180 196 256 233 209 189 174 242 279 309 351 10 284 276 100 120 201 319 36 102 114 96 99 118 124 134 143 151 161 163 164 165 164 167 169 170 174 178 180 180 182 185 186 187 183 181 184 186 186 183 178 175 174 173 172 171 172 172 172 173 174 177 179 181 177 172 171 165 164 165 161 155 151 150 147 132 133
234 242 228 205 206 210 216 239 225 176 176 244 233 201 188 201 263 274 295 295 235 260 302 10 97 121 354 29 120 112 95 105 133 139 148 155 161 165 164 167 166 167 172 172 175 179 179 180 182 183 183 185 188 185 183 184 185 186 184 180 178 175 174 173 175 176 176 176 175 174 175 174 174 173 172 173 170 167 169 164 158 159 160 161 159 153
219 221 231 213 201 203 214 232 220 174 184 240 224 198 203 226 243 256 270 274 272 289 306 321 41 85 310 285 108 98 99 124 153 156 160 164 166 165 167 170 170 172 174 174 179 181 180 181 182 181 180 184 188 187 185 183 183 184 185 184 181 178 176 176 178 179 178 180 180 178 175 170 169 170 167 166 165 165 168 167 163 165 166 171 179 169
244 233 237 211 191 203 218 229 208 171 204 236 211 199 204 203 231 255 243 250 339 340 260 279 26 89 274 294 71 85 113 147 166 170 171 172 168 167 170 172 173 174 173 175 182 183 181 179 177 176 178 183 188 188 187 183 181 184 186 185 183 180 178 179 181 182 181 185 187 184 180 176 173 168 161 161 164 167 171 173 170 169 172 176 183 180
263 260 257 224 203 205 205 218 189 181 203 193 150 212 276 284 266 274 247 143 91 256 251 244 163 118 289 295 140 140 165 160 159 169 186 182 172 172 174 172 173 174 172 175 182 184 182 177 172 175 178 183 187 190 190 184 182 186 186 186 185 181 179 182 183 183 183 188 191 189 186 186 181 171 164 164 167 171 174 177 177 179 184 187 195 192
280 268 264 227 220 203 179 214 200 190 191 139 122 142 286 313 14 30 336 62 118 244 259 233 157 121 166 261 257 276 194 166 164 171 183 183 176 176 175 172 173 174 173 175 178 183 183 177 172 174 178 183 187 191 192 186 184 188 187 186 185 181 181 184 183 181 184 187 191 193 194 194 187 177 171 169 170 175 178 182 186 189 193 192 191 182
293 260 254 236 226 185 147 227 288 348 56 132 125 96 124 285 2 9 301 168 174 241 253 231 140 117 224 244 289 315 185 176 175 171 175 174 169 171 173 173 174 175 176 175 178 183 181 176 174 176 180 185 188 191 192 188 188 190 188 186 185 182 182 185 183 182 186 190 195 199 198 193 185 181 178 176 177 180 183 187 188 188 188 182 169 162
292 289 287 272 249 166 136 157 251 317 66 153 164 142 164 202 109 282 270 267 229 237 261 264 137 129 279 266 316 328 193 183 173 160 165 164 162 168 172 173 175 177 177 176 181 185 180 176 175 178 183 187 188 189 190 190 191 192 189 186 185 184 184 187 186 186 190 193 194 195 195 189 184 183 183 184 186 185 184 184 182 184 184 177 164 158
225 289 274 221 240 180 153 173 183 176 163 198 195 148 159 165 148 207 221 182 229 246 295 310 122 144 210 248 316 334 165 167 155 153 159 155 157 165 168 172 177 179 178 176 178 179 177 175 175 179 186 190 191 190 190 191 194 194 190 186 185 186 188 189 188 189 190 188 187 189 192 190 188 189 189 191 191 185 181 179 183 189 188 184 175 163
183 246 252 231 216 180 185 204 172 139 161 247 173 104 175 189 150 147 184 165 162 227 334 340 47 124 203 263 332 4 108 123 115 131 138 142 154 161 164 172 178 180 180 177 173 171 174 175 175 179 187 192 194 195 193 192 194 194 190 187 187 188 191 191 189 189 187 184 185 189 192 193 195 196 193 191 189 185 183 183 187 187 185 185 176 165
174 248 275 281 256 208 203 201 162 151 180 264 128 159 218 179 127 125 207 47 76 85 289 351 87 6 322 350 351 10 81 96 95 108 119 138 154 159 162 168 175 179 180 178 171 170 177 179 177 180 186 192 196 197 197 195 194 193 191 189 188 190 194 193 190 189 187 186 188 190 191 195 198 196 192 188 187 187 187 186 186 181 177 174 166 160
188 250 285 290 294 264 221 202 189 168 155 127 185 215 207 70 82 113 136 26 51 157 275 353 117 145 70 13 340 350 50 87 76 92 113 134 148 155 159 164 172 176 176 175 171 170 177 181 182 181 183 191 198 198 199 198 194 190 189 189 190 193 196 194 191 190 188 189 192 191 191 193 193 193 190 188 188 186 184 184 185 180 169 163 160 158
192 237 289 269 251 277 241 172 296 280 178 150 178 192 110 96 303 62 116 120 111 176 282 335 33 124 110 0 333 325 287 274 70 98 115 126 139 150 159 166 172 173 173 173 171 171 176 181 187 185 183 190 197 197 196 196 194 191 189 190 191 195 198 196 194 194 191 191 194 194 191 190 193 196 191 188 188 184 183 187 187 180 167 161 162 160
68 167 285 286 255 314 29 50 308 301 323 23 55 11 40 138 164 163 148 147 145 164 208 302 351 107 104 318 307 281 274 312 4 91 111 112 118 140 162 170 171 173 175 172 168 171 173 176 184 185 182 187 193 195 194 193 193 194 194 192 191 194 196 195 195 196 194 193 193 192 189 188 194 197 190 185 185 182 186 190 185 178 170 168 170 165
20 109 244 292 323 28 31 310 148 168 341 58 62 23 351 42 115 131 167 124 130 148 166 173 188 252 303 322 299 270 71 29 2 350 27 75 76 81 101 114 113 110 130 150 158 167 170 170 175 179 182 187 190 192 196 195 194 197 198 195 193 191 191 191 193 193 192 192 188 183 185 190 193 191 184 180 181 184 191 191 185 184 179 177 181 172
36 118 198 296 0 49 231 205 120 102 94 104 117 138 167 139 113 116 239 292 96 128 157 164 166 281 331 332 317 43 88 73 41 9 4 57 69 68 68 79 107 92 50 79 132 160 168 171 172 174 180 185 186 190 197 201 201 202 202 198 193 190 188 191 194 194 196 198 191 183 186 190 187 183 179 177 178 186 192 188 187 192 190 188 191 180
146 100 104 266 295 117 270 222 107 102 92 80 64 83 107 111 110 124 189 228 63 81 109 112 113 66 334 336 3 57 70 76 71 55 27 57 78 85 82 82 103 136 131 119 118 141 147 152 152 147 148 155 171 190 200 206 211 211 207 200 195 193 193 196 200 199 200 197 190 188 189 187 184 183 180 176 179 189 191 188 193 198 194 196 195 185
121 76 63 315 297 302 293 315 65 77 81 72 9 348 39 76 129 140 175 170 126 132 126 83 90 200 316 342 34 66 65 60 65 69 60 65 84 91 90 86 85 93 108 113 121 119 93 86 92 96 99 107 120 144 178 198 208 211 210 208 206 204 202 202 204 202 197 188 184 186 185 180 182 181 176 174 179 187 190 194 202 200 193 198 197 189
130 82 82 66 359 347 308 294 357 25 56 86 320 320 355 19 65 93 143 90 98 191 152 121 154 219 242 17 35 60 66 51 42 57 82 88 91 93 93 94 96 105 115 113 113 113 104 99 99 96 95 96 97 109 143 176 194 205 212 215 213 209 207 204 204 206 203 191 184 186 182 177 177 173 170 176 182 188 194 197 201 202 200 200 199 193
123 183 109 108 144 178 190 225 239 278 77 86 344 350 13 24 39 71 123 82 102 210 101 109 165 165 109 74 56 53 72 69 39 36 70 82 88 92 91 90 92 103 120 125 121 120 120 123 120 111 105 100 94 100 120 149 172 185 200 210 210 210 212 211 208 210 213 205 191 189 194 193 186 179 181 190 193 195 195 192 197 210 217 212 204 199
107 83 77 113 154 180 196 230 241 213 100 96 50 20 21 17 36 72 97 90 161 151 60 89 157 131 117 99 87 78 87 96 76 46 59 72 77 80 83 87 88 92 104 116 121 123 127 130 130 124 117 111 106 106 112 123 138 150 157 165 181 201 215 220 219 216 217 211 194 188 196 199 192 189 194 198 200 199 195 199 209 216 221 220 211 202
100 44 28 81 101 337 327 311 309 43 84 110 110 59 37 29 49 70 77 263 153 113 69 198 146 122 122 118 109 108 104 101 84 63 64 74 80 82 84 87 88 89 95 103 110 116 122 126 128 126 123 119 118 123 126 122 123 129 136 142 158 178 195 208 216 218 217 213 199 189 193 196 193 192 196 200 203 201 203 215 219 213 214 217 209 202
108 54 7 43 34 5 2 358 14 74 75 74 93 91 77 70 74 88 106 281 113 119 153 155 125 106 106 99 89 82 76 77 77 77 79 81 85 88 87 85 82 83 86 90 96 103 109 113 116 119 121 121 119 122 128 130 133 138 141 147 159 167 173 184 198 206 209 208 206 200 198 198 196 193 196 203 208 209 209 212 208 201 203 207 203 201
91 54 21 67 55 25 18 357 343 92 89 63 55 57 72 83 83 85 88 78 77 85 111 116 100 80 65 74 79 74 73 81 82 79 78 78 82 84 84 80 76 76 78 78 83 90 93 96 102 107 110 109 112 119 127 137 144 144 145 152 160 164 164 169 181 195 199 199 205 208 207 207 205 204 207 214 219 220 214 206 203 201 200 202 201 201
51 89 293 84 74 28 20 2 345 97 95 70 40 19 28 71 78 73 82 86 80 80 95 100 95 80 46 72 92 82 73 74 72 68 67 71 79 82 80 78 74 73 75 75 80 86 88 89 91 93 95 95 102 115 126 140 147 146 148 154 161 169 172 176 186 196 198 194 199 206 209 211 214 216 217 219 225 225 215 207 208 207 201 201 204 203
65 97 345 63 81 345 358 2 323 102 83 61 29 2 351 24 80 75 63 78 103 122 119 107 102 113 128 97 90 80 74 69 60 60 66 71 78 80 78 76 75 74 75 76 80 84 86 86 85 84 87 91 101 115 125 141 147 144 144 146 146 149 156 171 188 199 203 201 200 203 206 209 212 215 217 217 219 220 215 213 214 211 204 203 205 207
137 119 86 81 95 329 333 346 287 276 61 44 355 336 322 321 94 81 45 40 72 120 129 126 122 135 141 116 90 78 78 76 69 70 73 72 76 80 79 77 76 76 77 77 80 83 83 82 81 81 83 88 98 112 124 136 134 129 131 134 134 137 140 149 164 181 193 196 198 203 206 209 211 213 215 214 213 215 216 217 217 214 210 209 209 213
118 124 133 137 119 177 286 349 334 352 67 37 308 328 338 37 90 87 66 48 56 76 100 109 105 111 116 106 100 96 94 94 91 86 82 77 76 79 80 79 77 76 77 78 79 80 81 80 80 81 82 84 89 101 118 127 121 119 124 125 124 127 129 132 140 153 161 160 164 176 185 196 203 207 209 209 209 214 217 217 217 216 215 213 213 216
96 107 118 120 115 142 138 52 46 56 87 239 306 346 8 43 82 85 71 58 76 94 98 99 102 105 103 102 109 112 108 103 97 89 85 81 78 77 75 75 77 77 77 76 75 77 78 77 76 78 79 81 84 91 102 108 106 108 112 114 115 114 113 115 122 133 140 140 143 149 152 167 184 193 201 206 207 210 214 217 219 219 220 220 220 222
123 114 104 100 93 118 122 93 114 136 88 328 327 343 1 15 49 73 66 48 73 107 107 103 108 114 113 113 116 115 108 99 88 82 86 89 87 85 79 75 76 75 72 68 62 59 62 65 66 68 71 73 77 84 92 97 99 101 103 105 107 104 103 106 109 115 125 130 133 138 144 158 172 177 185 195 200 206 212 217 220 224 227 229 231 233
121 123 107 88 83 116 117 91 107 125 128 340 341 336 347 343 332 81 92 57 36 120 125 121 121 125 123 124 126 119 106 92 77 70 85 93 93 95 92 84 80 78 78 77 68 51 40 41 48 55 61 62 62 69 82 91 96 99 99 100 100 98 98 99 97 97 104 110 115 122 129 139 151 157 163 167 169 182 201 211 217 224 229 233 235 237
75 112 136 123 89 98 107 102 114 138 166 185 260 279 282 269 260 213 106 77 44 132 139 133 131 141 139 137 139 129 102 83 69 72 96 97 93 90 87 84 85 87 90 95 95 82 53 32 26 22 36 53 45 44 66 84 91 96 97 96 97 98 98 96 93 91 93 97 102 107 113 118 124 135 148 152 147 149 161 174 202 221 228 235 239 238
48 50 87 95 63 62 100 108 121 145 170 238 255 276 302 301 274 204 86 88 133 143 143 136 135 149 154 152 154 145 92 82 119 153 117 103 91 86 83 82 84 84 84 87 90 90 88 75 39 347 320 26 34 24 47 79 86 90 93 93 96 101 99 95 92 90 90 93 97 100 104 107 109 115 126 132 138 149 153 150 164 207 229 241 244 241
34 26 44 67 62 66 88 90 85 140 245 275 274 287 308 315 300 139 120 184 154 148 151 147 145 157 166 158 151 124 86 119 150 147 124 105 90 86 85 82 84 84 82 82 80 78 79 76 73 74 83 88 59 31 12 48 83 98 104 98 97 102 96 87 81 84 89 94 100 104 109 112 114 117 123 128 132 140 155 168 177 187 203 219 231 234
22 22 43 76 88 76 87 101 78 267 258 289 305 306 316 329 344 160 207 208 149 142 151 150 146 153 150 127 107 87 96 124 136 134 124 113 105 101 95 90 91 92 90 88 85 80 76 70 69 71 71 69 66 59 49 0 320 199 171 170 161 73 49 46 44 65 103 114 115 118 122 127 132 134 137 144 147 150 159 171 185 200 208 215 235 250
17 6 15 49 58 58 85 97 72 179 309 325 317 319 353 58 186 211 110 133 127 122 122 122 121 121 114 105 102 103 109 118 125 126 124 123 120 115 110 106 103 102 104 104 100 96 88 80 77 75 65 54 47 44 44 35 26 43 32 289 282 290 301 303 301 293 275 257 252 254 258 242 215 204 196 182 171 168 170 170 176 188 194 200 221 245
86 63 35 35 29 63 81 56 82 184 321 336 326 318 18 62 158 106 86 97 108 109 106 106 109 114 114 110 109 113 115 117 119 121 121 122 121 119 117 113 102 99 104 107 105 106 106 97 86 74 56 43 26 14 11 6 9 22 14 349 336 313 294 285 284 287 285 279 275 276 281 284 280 271 260 251 239 214 205 211 217 212 210 213 218 227
355 61 148 260 336 98 115 48 83 220 331 2 34 89 73 87 109 103 92 90 95 102 106 105 106 113 118 117 115 116 117 116 118 121 121 117 114 112 104 91 83 84 84 83 83 89 99 97 77 59 42 30 26 19 10 5 1 340 313 311 307 300 292 281 274 274 276 278 278 277 278 279 279 278 272 263 259 253 247 250 253 244 237 235 236 238
8 96 107 91 41 77 99 106 109 76 44 57 79 89 88 93 99 100 97 92 90 98 106 107 107 111 115 117 117 115 114 114 114 117 118 111 104 100 89 76 68 66 64 63 62 61 63 51 39 40 46 45 43 40 31 24 22 358 309 293 288 286 285 280 274 270 268 269 270 271 271 270 268 268 268 263 261 261 260 258 258 256 252 246 245 249
97 100 93 92 96 82 79 93 100 80 69 76 87 92 94 96 98 97 95 92 92 98 104 106 108 109 110 113 111 106 105 109 107 106 108 104 94 86 77 64 53 47 39 32 31 34 38 39 35 38 49 53 44 28 13 6 5 6 0 341 327 319 310 302 299 294 285 277 273 271 271 271 269 267 265 262 260 259 260 261 260 261 263 260 254 253
15 76 76 91 126 100 82 98 101 92 88 89 92 95 96 97 100 102 99 96 96 98 99 101 104 104 105 110 109 103 104 111 112 110 113 111 100 88 77 64 50 36 24 21 30 39 37 35 34 29 30 37 28 7 351 344 343 345 342 336 334 332 328 325 324 322 317 311 302 293 285 280 278 275 271 267 262 257 255 256 257 259 261 262 259 255
32 87 81 78 79 83 105 128 112 103 105 104 102 104 104 104 107 109 106 103 101 99 100 105 110 112 114 119 118 112 107 115 127 130 127 123 118 107 95 82 51 22 20 34 55 55 31 15 5 354 351 352 349 335 323 318 316 314 312 312 312 312 313 315 316 316 316 316 313 310 304 297 291 287 282 274 267 260 255 252 252 255 258 260 260 257
112 102 89 92 92 85 103 123 110 97 96 105 110 111 111 111 112 112 111 112 111 110 112 113 115 117 119 125 130 119 103 105 125 135 131 125 123 119 107 87 58 36 39 24 354 340 321 303 308 314 314 310 307 303 301 301 301 301 301 300 298 298 297 297 298 298 299 301 303 303 303 301 297 295 291 284 275 264 257 254 253 255 256 257 259 260
94 108 102 104 114 133 163 150 130 114 109 117 117 117 117 117 116 115 115 116 116 117 117 115 113 112 114 123 134 126 108 105 115 126 124 117 114 108 88 91 128 145 164 285 317 310 294 293 294 292 290 290 290 289 288 290 291 293 295 296 295 295 294 292 291 289 288 290 292 294 297 299 299 298 297 293 287 276 265 256 253 257 262 262 260 262
109 155 147 126 132 152 155 151 141 131 132 135 129 125 125 126 123 117 112 113 116 121 122 119 117 115 114 116 121 123 120 115 113 116 116 109 104 83 47 144 164 170 196 255 282 294 298 298 295 291 288 285 284 285 286 287 288 289 291 293 293 293 293 293 292 289 287 288 289 292 296 297 298 299 298 297 297 293 285 272 260 254 259 266 268 266